Orbital Elements
Epoch 2004 July 14.0 TT = JDT 2453200.5
T 2004 July 15.94512 TT MPC
q 2.0147378 (2000.0) P Q
n 0.09210638 Peri. 147.16131 +0.46309775 +0.88564144
a 4.8559726 Node 150.38398 -0.82742743 +0.44589731
e 0.5851011 Incl. 3.98541 -0.31765442 +0.12967202
P 10.7
From 218 observations 1972 June 16-2004 Nov. 7, mean residual 0".7.
Nongravitational parameters A1 = +0.77, A2 = +0.1374.
|